Year,Month,Day,Hour,Minute,Value (Times are PST for temperature in C)
2007,07,18,08,15,17.30
2007,07,18,08,16,17.30
2007,07,18,08,17,17.30
2007,07,18,08,18,17.30
2007,07,18,08,19,17.30
2007,07,18,08,20,17.30
2007,07,18,08,21,17.30
2007,07,18,08,22,17.30
2007,07,18,08,23,17.30
2007,07,18,08,24,17.30
2007,07,18,08,25,17.30
2007,07,18,08,26,17.30
2007,07,18,08,27,17.30
2007,07,18,08,28,17.30
2007,07,18,08,29,17.30
2007,07,18,08,30,17.30
2007,07,18,08,31,17.30
2007,07,18,08,32,17.40
2007,07,18,08,33,17.40
2007,07,18,08,34,17.40
2007,07,18,08,35,17.40
2007,07,18,08,36,17.50
2007,07,18,08,37,17.50
2007,07,18,08,38,17.50
2007,07,18,08,39,17.60
2007,07,18,08,40,17.60
2007,07,18,08,41,17.70
2007,07,18,08,42,17.70
2007,07,18,08,43,17.80
2007,07,18,08,44,17.80
2007,07,18,08,45,17.90
2007,07,18,08,46,17.90
2007,07,18,08,47,18.00
2007,07,18,08,48,18.10
2007,07,18,08,49,18.20
2007,07,18,08,50,18.30
2007,07,18,08,51,18.30
2007,07,18,08,52,18.40
2007,07,18,08,53,18.40
2007,07,18,08,54,18.40
2007,07,18,08,55,18.40
2007,07,18,08,56,18.30
2007,07,18,08,57,18.30
2007,07,18,08,58,18.30
2007,07,18,08,59,18.30
2007,07,18,09,00,18.30
2007,07,18,09,01,18.30
2007,07,18,09,02,18.30
2007,07,18,09,03,18.30
2007,07,18,09,04,18.30
2007,07,18,09,05,18.30
2007,07,18,09,06,18.30
2007,07,18,09,07,18.30
2007,07,18,09,08,18.30
2007,07,18,09,09,18.30
2007,07,18,09,10,18.30
2007,07,18,09,11,18.30
2007,07,18,09,12,18.30
2007,07,18,09,13,18.30
2007,07,18,09,14,18.30
2007,07,18,09,15,18.30
2007,07,18,09,16,18.40
2007,07,18,09,17,18.50
2007,07,18,09,18,18.60
2007,07,18,09,19,18.70
2007,07,18,09,20,18.80
2007,07,18,09,21,18.90
2007,07,18,09,22,18.90
2007,07,18,09,23,18.90
2007,07,18,09,24,18.90
2007,07,18,09,25,18.90
2007,07,18,09,26,18.80
2007,07,18,09,27,18.80
2007,07,18,09,28,18.80
2007,07,18,09,29,18.90
2007,07,18,09,30,19.00
2007,07,18,09,31,19.10
2007,07,18,09,32,19.10
2007,07,18,09,33,19.10
2007,07,18,09,34,19.10
2007,07,18,09,35,19.10
2007,07,18,09,36,19.10
2007,07,18,09,37,19.00
2007,07,18,09,38,18.90
2007,07,18,09,39,18.90
2007,07,18,09,40,18.90
2007,07,18,09,41,18.90
2007,07,18,09,42,18.90
2007,07,18,09,43,18.90
2007,07,18,09,44,19.00
2007,07,18,09,45,19.00
2007,07,18,09,46,19.00
2007,07,18,09,47,18.90
2007,07,18,09,48,18.90
2007,07,18,09,49,18.80
2007,07,18,09,50,18.90
2007,07,18,09,51,18.90
2007,07,18,09,52,18.90
2007,07,18,09,53,18.90
2007,07,18,09,54,18.90
2007,07,18,09,55,18.90
2007,07,18,09,56,18.90
2007,07,18,09,57,18.90
2007,07,18,09,58,18.90
2007,07,18,09,59,18.90
2007,07,18,10,00,18.90
2007,07,18,10,01,18.90
2007,07,18,10,02,18.90
2007,07,18,10,03,18.90
2007,07,18,10,04,18.90
2007,07,18,10,05,18.90
2007,07,18,10,06,18.80
2007,07,18,10,07,18.80
2007,07,18,10,08,18.90
2007,07,18,10,09,18.90
2007,07,18,10,10,19.00
2007,07,18,10,11,19.00
2007,07,18,10,12,19.00
2007,07,18,10,13,19.00
2007,07,18,10,14,18.90
2007,07,18,10,15,18.90
2007,07,18,10,16,18.80
2007,07,18,10,17,18.70
2007,07,18,10,18,18.60
2007,07,18,10,19,18.60
2007,07,18,10,20,18.60
2007,07,18,10,21,18.60
2007,07,18,10,22,18.50
2007,07,18,10,23,18.50
2007,07,18,10,24,18.40
2007,07,18,10,25,18.40
2007,07,18,10,26,18.40
2007,07,18,10,27,18.40
2007,07,18,10,28,18.40
2007,07,18,10,29,18.50
2007,07,18,10,30,18.50
2007,07,18,10,31,18.60
2007,07,18,10,32,18.70
2007,07,18,10,33,18.70
2007,07,18,10,34,18.80
2007,07,18,10,35,18.80
2007,07,18,10,36,18.80
2007,07,18,10,37,18.80
2007,07,18,10,38,18.80
2007,07,18,10,39,18.80
2007,07,18,10,40,18.80
2007,07,18,10,41,18.80
2007,07,18,10,42,18.80
2007,07,18,10,43,18.70
2007,07,18,10,44,18.70
2007,07,18,10,45,18.70
2007,07,18,10,46,18.70
2007,07,18,10,47,18.70
2007,07,18,10,48,18.60
2007,07,18,10,49,18.60
2007,07,18,10,50,18.70
2007,07,18,10,51,18.70
2007,07,18,10,52,18.70
2007,07,18,10,53,18.60
2007,07,18,10,54,18.60
2007,07,18,10,55,18.60
2007,07,18,10,56,18.60
2007,07,18,10,57,18.50
2007,07,18,10,58,18.40
2007,07,18,10,59,18.40
2007,07,18,11,00,18.40
2007,07,18,11,01,18.40
2007,07,18,11,02,18.50
2007,07,18,11,03,18.50
2007,07,18,11,04,18.60
2007,07,18,11,05,18.60
2007,07,18,11,06,18.60
2007,07,18,11,07,18.50
2007,07,18,11,08,18.40
2007,07,18,11,09,18.40
2007,07,18,11,10,18.30
2007,07,18,11,11,18.30
2007,07,18,11,12,18.30
2007,07,18,11,13,18.30
2007,07,18,11,14,18.30
2007,07,18,11,15,18.30
2007,07,18,11,16,18.30
2007,07,18,11,17,18.30
2007,07,18,11,18,18.30
2007,07,18,11,19,18.40
2007,07,18,11,20,18.50
2007,07,18,11,21,18.60
2007,07,18,11,22,18.60
2007,07,18,11,23,18.70
2007,07,18,11,24,18.80
2007,07,18,11,25,18.90
2007,07,18,11,26,18.90
2007,07,18,11,27,19.00
2007,07,18,11,28,19.00
2007,07,18,11,29,19.10
2007,07,18,11,30,19.20
2007,07,18,11,31,19.30
2007,07,18,11,32,19.30
2007,07,18,11,33,19.40
2007,07,18,11,34,19.50
2007,07,18,11,35,19.60
2007,07,18,11,36,19.60
2007,07,18,11,37,19.70
2007,07,18,11,38,19.70
2007,07,18,11,39,19.70
2007,07,18,11,40,19.70
2007,07,18,11,41,19.70
2007,07,18,11,42,19.70
2007,07,18,11,43,19.70
2007,07,18,11,44,19.60
2007,07,18,11,45,19.60
2007,07,18,11,46,19.50
2007,07,18,11,47,19.40
2007,07,18,11,48,19.40
2007,07,18,11,49,19.40
2007,07,18,11,50,19.40
2007,07,18,11,51,19.40
2007,07,18,11,52,19.40
2007,07,18,11,53,19.50
2007,07,18,11,54,19.60
2007,07,18,11,55,19.60
2007,07,18,11,56,19.70
2007,07,18,11,57,19.70
2007,07,18,11,58,19.70
2007,07,18,11,59,19.70
2007,07,18,12,00,19.70
2007,07,18,12,01,19.70
2007,07,18,12,02,19.60
2007,07,18,12,03,19.70
2007,07,18,12,04,19.70
2007,07,18,12,05,19.80
2007,07,18,12,06,19.90
2007,07,18,12,07,20.00
2007,07,18,12,08,20.10
2007,07,18,12,09,20.20
2007,07,18,12,10,20.20
2007,07,18,12,11,20.30
2007,07,18,12,12,20.30
2007,07,18,12,13,20.20
2007,07,18,12,14,20.20
2007,07,18,12,15,20.30
2007,07,18,12,16,20.30
2007,07,18,12,17,20.40
2007,07,18,12,18,20.40
2007,07,18,12,19,20.40
2007,07,18,12,20,20.40
2007,07,18,12,21,20.30
2007,07,18,12,22,20.20
2007,07,18,12,23,20.10
2007,07,18,12,24,20.10
2007,07,18,12,25,20.10
2007,07,18,12,26,20.10
2007,07,18,12,27,20.10
2007,07,18,12,28,20.10
2007,07,18,12,29,20.10
2007,07,18,12,30,20.00
2007,07,18,12,31,20.00
2007,07,18,12,32,20.00
2007,07,18,12,33,19.90
2007,07,18,12,34,19.90
2007,07,18,12,35,20.00
2007,07,18,12,36,20.00
2007,07,18,12,37,20.00
2007,07,18,12,38,20.00
2007,07,18,12,39,19.90
2007,07,18,12,40,19.90
2007,07,18,12,41,19.90
2007,07,18,12,42,19.80
2007,07,18,12,43,19.70
2007,07,18,12,44,19.60
2007,07,18,12,45,19.50
2007,07,18,12,46,19.30
2007,07,18,12,47,19.20
2007,07,18,12,48,19.20
2007,07,18,12,49,19.10
2007,07,18,12,50,19.10
2007,07,18,12,51,19.00
2007,07,18,12,52,18.90
2007,07,18,12,53,18.90
2007,07,18,12,54,18.80
2007,07,18,12,55,18.80
2007,07,18,12,56,18.70
2007,07,18,12,57,18.70
2007,07,18,12,58,18.70
2007,07,18,12,59,18.60
2007,07,18,13,00,18.60
2007,07,18,13,01,18.60
2007,07,18,13,02,18.60
2007,07,18,13,03,18.60
2007,07,18,13,04,18.70
2007,07,18,13,05,18.70
2007,07,18,13,06,18.80
2007,07,18,13,07,18.80
2007,07,18,13,08,18.70
2007,07,18,13,09,18.70
2007,07,18,13,10,18.70
2007,07,18,13,11,18.70
2007,07,18,13,12,18.70
2007,07,18,13,13,18.70
2007,07,18,13,14,18.70
2007,07,18,13,15,18.70
2007,07,18,13,16,18.70
2007,07,18,13,17,18.70
2007,07,18,13,18,18.70
2007,07,18,13,19,18.70
2007,07,18,13,20,18.70
2007,07,18,13,21,18.70
2007,07,18,13,22,18.80
2007,07,18,13,23,18.70
2007,07,18,13,24,18.70
2007,07,18,13,25,18.70
2007,07,18,13,26,18.70
2007,07,18,13,27,18.70
2007,07,18,13,28,18.70
2007,07,18,13,29,18.70
2007,07,18,13,30,18.70
2007,07,18,13,31,18.70
2007,07,18,13,32,18.70
2007,07,18,13,33,18.70
2007,07,18,13,34,18.70
2007,07,18,13,35,18.70
2007,07,18,13,36,18.70
2007,07,18,13,37,18.70
2007,07,18,13,38,18.70
2007,07,18,13,39,18.70
2007,07,18,13,40,18.70
2007,07,18,13,41,18.70
2007,07,18,13,42,18.70
2007,07,18,13,43,18.70
2007,07,18,13,44,18.70
2007,07,18,13,45,18.70
2007,07,18,13,46,18.70
2007,07,18,13,47,18.60
2007,07,18,13,48,18.60
2007,07,18,13,49,18.60
2007,07,18,13,50,18.60
2007,07,18,13,51,18.50
2007,07,18,13,52,18.50
2007,07,18,13,53,18.50
2007,07,18,13,54,18.40
2007,07,18,13,55,18.40
2007,07,18,13,56,18.40
2007,07,18,13,57,18.30
2007,07,18,13,58,18.30
2007,07,18,13,59,18.30
2007,07,18,14,00,18.20
2007,07,18,14,01,18.20
2007,07,18,14,02,18.20
2007,07,18,14,03,18.10
2007,07,18,14,04,18.10
2007,07,18,14,05,18.00
2007,07,18,14,06,18.00
2007,07,18,14,07,18.00
2007,07,18,14,08,17.90
2007,07,18,14,09,17.90
2007,07,18,14,10,17.90
2007,07,18,14,11,17.90
2007,07,18,14,12,17.90
2007,07,18,14,13,17.80
2007,07,18,14,14,17.80
2007,07,18,14,15,17.80
2007,07,18,14,16,17.80
2007,07,18,14,17,17.80
2007,07,18,14,18,17.70
2007,07,18,14,19,17.70
2007,07,18,14,20,17.70
2007,07,18,14,21,17.70
2007,07,18,14,22,17.70
2007,07,18,14,23,17.70
2007,07,18,14,24,17.70
2007,07,18,14,25,17.70
2007,07,18,14,26,17.70
2007,07,18,14,27,17.70
2007,07,18,14,28,17.70
2007,07,18,14,29,17.70
2007,07,18,14,30,17.70
2007,07,18,14,31,17.70
2007,07,18,14,32,17.80
2007,07,18,14,33,17.80
2007,07,18,14,34,17.80
2007,07,18,14,35,17.80
2007,07,18,14,36,17.80
2007,07,18,14,37,17.80
2007,07,18,14,38,17.80
2007,07,18,14,39,17.80
2007,07,18,14,40,17.80
2007,07,18,14,41,17.80
2007,07,18,14,42,17.80
2007,07,18,14,43,17.70
2007,07,18,14,44,17.70
2007,07,18,14,45,17.70
2007,07,18,14,46,17.70
2007,07,18,14,47,17.70
2007,07,18,14,48,17.70
2007,07,18,14,49,17.70
2007,07,18,14,50,17.70
2007,07,18,14,51,17.70
2007,07,18,14,52,17.70
2007,07,18,14,53,17.80
2007,07,18,14,54,17.80
2007,07,18,14,55,17.80
2007,07,18,14,56,17.80
2007,07,18,14,57,17.80
2007,07,18,14,58,17.80
2007,07,18,14,59,17.80
2007,07,18,15,00,17.70
2007,07,18,15,01,17.70
2007,07,18,15,02,17.70
2007,07,18,15,03,17.70
2007,07,18,15,04,17.70
2007,07,18,15,05,17.60
2007,07,18,15,06,17.60
2007,07,18,15,07,17.60
2007,07,18,15,08,17.60
2007,07,18,15,09,17.60
2007,07,18,15,10,17.60
2007,07,18,15,11,17.50
2007,07,18,15,12,17.50
2007,07,18,15,13,17.50
2007,07,18,15,14,17.40
2007,07,18,15,15,17.40
2007,07,18,15,16,17.40
2007,07,18,15,17,17.40
2007,07,18,15,18,17.40
2007,07,18,15,19,17.40
2007,07,18,15,20,17.40
2007,07,18,15,21,17.40
2007,07,18,15,22,17.40
2007,07,18,15,23,17.40
2007,07,18,15,24,17.40
2007,07,18,15,25,17.40
2007,07,18,15,26,17.40
2007,07,18,15,27,17.40
2007,07,18,15,28,17.40
2007,07,18,15,29,17.40
2007,07,18,15,30,17.40
2007,07,18,15,31,17.30
2007,07,18,15,32,17.30
2007,07,18,15,33,17.30
2007,07,18,15,34,17.30
2007,07,18,15,35,17.30
2007,07,18,15,36,17.30
2007,07,18,15,37,17.20
2007,07,18,15,38,17.20
2007,07,18,15,39,17.20
2007,07,18,15,40,17.20
2007,07,18,15,41,17.20
2007,07,18,15,42,17.20
2007,07,18,15,43,17.20
2007,07,18,15,44,17.20
2007,07,18,15,45,17.30
2007,07,18,15,46,17.30
2007,07,18,15,47,17.30
2007,07,18,15,48,17.30
2007,07,18,15,49,17.30
2007,07,18,15,50,17.40
2007,07,18,15,51,17.40
2007,07,18,15,52,17.50
2007,07,18,15,53,17.50
2007,07,18,15,54,17.60
2007,07,18,15,55,17.60
2007,07,18,15,56,17.60
2007,07,18,15,57,17.60
2007,07,18,15,58,17.70
2007,07,18,15,59,17.70
2007,07,18,16,00,17.70
2007,07,18,16,01,17.70
2007,07,18,16,02,17.80
2007,07,18,16,03,17.80
2007,07,18,16,04,17.80
2007,07,18,16,05,17.80
2007,07,18,16,06,17.80
2007,07,18,16,07,17.80
2007,07,18,16,08,17.80
2007,07,18,16,09,17.90
2007,07,18,16,10,17.90
2007,07,18,16,11,17.90
2007,07,18,16,12,17.90
2007,07,18,16,13,17.90
2007,07,18,16,14,17.90
2007,07,18,16,15,17.90
2007,07,18,16,16,17.90
2007,07,18,16,17,17.90
2007,07,18,16,18,17.90
2007,07,18,16,19,17.90
2007,07,18,16,20,17.90
2007,07,18,16,21,17.80
2007,07,18,16,22,17.80
2007,07,18,16,23,17.80
2007,07,18,16,24,17.80
2007,07,18,16,25,17.80
2007,07,18,16,26,17.80
2007,07,18,16,27,17.80
2007,07,18,16,28,17.90
2007,07,18,16,29,17.90
2007,07,18,16,30,17.90
2007,07,18,16,31,17.90
2007,07,18,16,32,17.90
2007,07,18,16,33,17.90
2007,07,18,16,34,17.90
2007,07,18,16,35,17.80
2007,07,18,16,36,17.80
2007,07,18,16,37,17.70
2007,07,18,16,38,17.70
2007,07,18,16,39,17.70
2007,07,18,16,40,17.60
2007,07,18,16,41,17.60
2007,07,18,16,42,17.60
2007,07,18,16,43,17.60
2007,07,18,16,44,17.60
2007,07,18,16,45,17.60
2007,07,18,16,46,17.50
2007,07,18,16,47,17.50
2007,07,18,16,48,17.50
2007,07,18,16,49,17.50
2007,07,18,16,50,17.50
2007,07,18,16,51,17.50
2007,07,18,16,52,17.60
2007,07,18,16,53,17.60
2007,07,18,16,54,17.60
2007,07,18,16,55,17.60
2007,07,18,16,56,17.60
2007,07,18,16,57,17.50
2007,07,18,16,58,17.50
2007,07,18,16,59,17.40
2007,07,18,17,00,17.40
2007,07,18,17,01,17.40
2007,07,18,17,02,17.30
2007,07,18,17,03,17.30
2007,07,18,17,04,17.20
2007,07,18,17,05,17.20
2007,07,18,17,06,17.20
2007,07,18,17,07,17.10
2007,07,18,17,08,17.10
2007,07,18,17,09,17.10
2007,07,18,17,10,17.10
2007,07,18,17,11,17.10
2007,07,18,17,12,17.10
2007,07,18,17,13,17.00
2007,07,18,17,14,17.00
2007,07,18,17,15,16.90
2007,07,18,17,16,16.90
2007,07,18,17,17,16.90
2007,07,18,17,18,16.80
2007,07,18,17,19,16.80
2007,07,18,17,20,16.70
2007,07,18,17,21,16.70
2007,07,18,17,22,16.70
2007,07,18,17,23,16.60
2007,07,18,17,24,16.60
2007,07,18,17,25,16.60
2007,07,18,17,26,16.50
2007,07,18,17,27,16.50
2007,07,18,17,28,16.40
2007,07,18,17,29,16.40
2007,07,18,17,30,16.40
2007,07,18,17,31,16.40
2007,07,18,17,32,16.30
2007,07,18,17,33,16.30
2007,07,18,17,34,16.30
2007,07,18,17,35,16.30
2007,07,18,17,36,16.20
2007,07,18,17,37,16.20
2007,07,18,17,38,16.20
2007,07,18,17,39,16.20
2007,07,18,17,40,16.20
2007,07,18,17,41,16.20
2007,07,18,17,42,16.20
2007,07,18,17,43,16.20
2007,07,18,17,44,16.20
2007,07,18,17,45,16.20
2007,07,18,17,46,16.20
2007,07,18,17,47,16.20
2007,07,18,17,48,16.20
2007,07,18,17,49,16.20
2007,07,18,17,50,16.20
2007,07,18,17,51,16.30
2007,07,18,17,52,16.30
2007,07,18,17,53,16.30
2007,07,18,17,54,16.30
2007,07,18,17,55,16.30
2007,07,18,17,56,16.30
2007,07,18,17,57,16.30
2007,07,18,17,58,16.30
2007,07,18,17,59,16.30
2007,07,18,18,00,16.40
2007,07,18,18,01,16.40
2007,07,18,18,02,16.40
2007,07,18,18,03,16.40
2007,07,18,18,04,16.40
2007,07,18,18,05,16.40
2007,07,18,18,06,16.50
2007,07,18,18,07,16.50
2007,07,18,18,08,16.50
2007,07,18,18,09,16.50
2007,07,18,18,10,16.50
2007,07,18,18,11,16.50
2007,07,18,18,12,16.50
2007,07,18,18,13,16.50
2007,07,18,18,14,16.40
2007,07,18,18,15,16.40
2007,07,18,18,16,16.40
2007,07,18,18,17,16.30
2007,07,18,18,18,16.30
2007,07,18,18,19,16.30
2007,07,18,18,20,16.20
2007,07,18,18,21,16.20
2007,07,18,18,22,16.20
2007,07,18,18,23,16.20
2007,07,18,18,24,16.20
2007,07,18,18,25,16.20
2007,07,18,18,26,16.20
2007,07,18,18,27,16.20
2007,07,18,18,28,16.20
2007,07,18,18,29,16.20
2007,07,18,18,30,16.20
2007,07,18,18,31,16.20
2007,07,18,18,32,16.20
2007,07,18,18,33,16.20
2007,07,18,18,34,16.20
2007,07,18,18,35,16.20
2007,07,18,18,36,16.20
2007,07,18,18,37,16.20
2007,07,18,18,38,16.20
2007,07,18,18,39,16.20
2007,07,18,18,40,16.20
2007,07,18,18,41,16.20
2007,07,18,18,42,16.20
2007,07,18,18,43,16.20
2007,07,18,18,44,16.20
2007,07,18,18,45,16.20
2007,07,18,18,46,16.20
2007,07,18,18,47,16.20
2007,07,18,18,48,16.20
2007,07,18,18,49,16.20
2007,07,18,18,50,16.20
2007,07,18,18,51,16.20
2007,07,18,18,52,16.20
2007,07,18,18,53,16.20
2007,07,18,18,54,16.20
2007,07,18,18,55,16.30
2007,07,18,18,56,16.30
2007,07,18,18,57,16.30
2007,07,18,18,58,16.30
2007,07,18,18,59,16.30
2007,07,18,19,00,16.30
2007,07,18,19,01,16.30
2007,07,18,19,02,16.30
2007,07,18,19,03,16.30
2007,07,18,19,04,16.30
2007,07,18,19,05,16.30
2007,07,18,19,06,16.30
2007,07,18,19,07,16.30
2007,07,18,19,08,16.30
2007,07,18,19,09,16.30
2007,07,18,19,10,16.30
2007,07,18,19,11,16.30
2007,07,18,19,12,16.30
2007,07,18,19,13,16.30
2007,07,18,19,14,16.30
2007,07,18,19,15,16.40
2007,07,18,19,16,16.40
2007,07,18,19,17,16.40
2007,07,18,19,18,16.40
2007,07,18,19,19,16.40
2007,07,18,19,20,16.40
2007,07,18,19,21,16.40
2007,07,18,19,22,16.40
2007,07,18,19,23,16.40
2007,07,18,19,24,16.40
2007,07,18,19,25,16.40
2007,07,18,19,26,16.40
2007,07,18,19,27,16.40
2007,07,18,19,28,16.40
2007,07,18,19,29,16.30
2007,07,18,19,30,16.30
2007,07,18,19,31,16.30
2007,07,18,19,32,16.30
2007,07,18,19,33,16.30
2007,07,18,19,34,16.30
2007,07,18,19,35,16.20
2007,07,18,19,36,16.20
2007,07,18,19,37,16.20
2007,07,18,19,38,16.20
2007,07,18,19,39,16.20
2007,07,18,19,40,16.20
2007,07,18,19,41,16.20
2007,07,18,19,42,16.20
2007,07,18,19,43,16.20
2007,07,18,19,44,16.20
2007,07,18,19,45,16.20
2007,07,18,19,46,16.20
2007,07,18,19,47,16.20
2007,07,18,19,48,16.20
2007,07,18,19,49,16.20
2007,07,18,19,50,16.20
2007,07,18,19,51,16.30
2007,07,18,19,52,16.30
2007,07,18,19,53,16.30
2007,07,18,19,54,16.30
2007,07,18,19,55,16.30
2007,07,18,19,56,16.30
2007,07,18,19,57,16.30
2007,07,18,19,58,16.20
2007,07,18,19,59,16.20
2007,07,18,20,00,16.20
2007,07,18,20,01,16.20
2007,07,18,20,02,16.20
2007,07,18,20,03,16.20
2007,07,18,20,04,16.20
2007,07,18,20,05,16.20
2007,07,18,20,06,16.20
2007,07,18,20,07,16.20
2007,07,18,20,08,16.20
2007,07,18,20,09,16.20
2007,07,18,20,10,16.20
2007,07,18,20,11,16.20
2007,07,18,20,12,16.20
2007,07,18,20,13,16.10
2007,07,18,20,14,16.00
2007,07,18,20,15,16.00
2007,07,18,20,16,16.00
2007,07,18,20,17,16.00
2007,07,18,20,18,16.00
2007,07,18,20,19,15.90
2007,07,18,20,20,15.90
2007,07,18,20,21,15.90
2007,07,18,20,22,15.90
2007,07,18,20,23,15.90
2007,07,18,20,24,15.90
2007,07,18,20,25,15.90
2007,07,18,20,26,15.90
2007,07,18,20,27,15.90
2007,07,18,20,28,15.90
2007,07,18,20,29,15.90
2007,07,18,20,30,15.90
2007,07,18,20,31,15.90
2007,07,18,20,32,15.90
2007,07,18,20,33,15.90
2007,07,18,20,34,15.90
2007,07,18,20,35,15.90
2007,07,18,20,36,15.90
2007,07,18,20,37,15.90
2007,07,18,20,38,15.90
2007,07,18,20,39,15.90
2007,07,18,20,40,15.90
2007,07,18,20,41,15.90
2007,07,18,20,42,15.90
2007,07,18,20,43,15.90
2007,07,18,20,44,15.90
2007,07,18,20,45,15.90
2007,07,18,20,46,15.90
2007,07,18,20,47,15.90
2007,07,18,20,48,15.90
2007,07,18,20,49,15.90
2007,07,18,20,50,15.90
2007,07,18,20,51,15.90
2007,07,18,20,52,15.90
2007,07,18,20,53,15.90
2007,07,18,20,54,15.80
2007,07,18,20,55,15.80
2007,07,18,20,56,15.80
2007,07,18,20,57,15.80
2007,07,18,20,58,15.80
2007,07,18,20,59,15.80
2007,07,18,21,00,15.70
2007,07,18,21,01,15.70
2007,07,18,21,02,15.70
2007,07,18,21,03,15.70
2007,07,18,21,04,15.70
2007,07,18,21,05,15.70
2007,07,18,21,06,15.60
2007,07,18,21,07,15.60
2007,07,18,21,08,15.60
2007,07,18,21,09,15.60
2007,07,18,21,10,15.60
2007,07,18,21,11,15.60
2007,07,18,21,12,15.60
2007,07,18,21,13,15.60
2007,07,18,21,14,15.60
2007,07,18,21,15,15.60
2007,07,18,21,16,15.60
2007,07,18,21,17,15.60
2007,07,18,21,18,15.50
2007,07,18,21,19,15.50
2007,07,18,21,20,15.50
2007,07,18,21,21,15.50
2007,07,18,21,22,15.50
2007,07,18,21,23,15.50
2007,07,18,21,24,15.50
2007,07,18,21,25,15.50
2007,07,18,21,26,15.40
2007,07,18,21,27,15.40
2007,07,18,21,28,15.40
2007,07,18,21,29,15.40
2007,07,18,21,30,15.40
2007,07,18,21,31,15.40
2007,07,18,21,32,15.40
2007,07,18,21,33,15.40
2007,07,18,21,34,15.40
2007,07,18,21,35,15.40
2007,07,18,21,36,15.40
2007,07,18,21,37,15.40
2007,07,18,21,38,15.40
2007,07,18,21,39,15.40
2007,07,18,21,40,15.30
2007,07,18,21,41,15.30
2007,07,18,21,42,15.30
2007,07,18,21,43,15.30
2007,07,18,21,44,15.30
2007,07,18,21,45,15.30
2007,07,18,21,46,15.30
2007,07,18,21,47,15.30
2007,07,18,21,48,15.30
2007,07,18,21,49,15.30
2007,07,18,21,50,15.30
2007,07,18,21,51,15.30
2007,07,18,21,52,15.30
2007,07,18,21,53,15.30
2007,07,18,21,54,15.30
2007,07,18,21,55,15.30
2007,07,18,21,56,15.30
2007,07,18,21,57,15.30
2007,07,18,21,58,15.30
2007,07,18,21,59,15.30
2007,07,18,22,00,15.40
2007,07,18,22,01,15.30
2007,07,18,22,02,15.30
2007,07,18,22,03,15.30
2007,07,18,22,04,15.30
2007,07,18,22,05,15.30
2007,07,18,22,06,15.30
2007,07,18,22,07,15.30
2007,07,18,22,08,15.40
2007,07,18,22,09,15.40
2007,07,18,22,10,15.40
2007,07,18,22,11,15.50
2007,07,18,22,12,15.50
2007,07,18,22,13,15.50
2007,07,18,22,14,15.50
2007,07,18,22,15,15.60
2007,07,18,22,16,15.50
2007,07,18,22,17,15.60
2007,07,18,22,18,15.50
2007,07,18,22,19,15.50
2007,07,18,22,20,15.50
2007,07,18,22,21,15.50
2007,07,18,22,22,15.50
2007,07,18,22,23,15.60
2007,07,18,22,24,15.60
2007,07,18,22,25,15.60
2007,07,18,22,26,15.60
2007,07,18,22,27,15.60
2007,07,18,22,28,15.60
2007,07,18,22,29,15.60
2007,07,18,22,30,15.50
2007,07,18,22,31,15.50
2007,07,18,22,32,15.50
2007,07,18,22,33,15.50
2007,07,18,22,34,15.50
2007,07,18,22,35,15.50
2007,07,18,22,36,15.50
2007,07,18,22,37,15.50
2007,07,18,22,38,15.50
2007,07,18,22,39,15.60
2007,07,18,22,40,15.60
2007,07,18,22,41,15.60
2007,07,18,22,42,15.70
2007,07,18,22,43,15.70
2007,07,18,22,44,15.80
2007,07,18,22,45,15.80
2007,07,18,22,46,15.80
2007,07,18,22,47,15.90
2007,07,18,22,48,15.90
2007,07,18,22,49,15.90
2007,07,18,22,50,15.90
2007,07,18,22,51,16.00
2007,07,18,22,52,16.00
2007,07,18,22,53,16.00
2007,07,18,22,54,16.00
2007,07,18,22,55,16.00
2007,07,18,22,56,15.90
2007,07,18,22,57,15.90
2007,07,18,22,58,15.90
2007,07,18,22,59,15.80
2007,07,18,23,00,15.80
2007,07,18,23,01,15.80
2007,07,18,23,02,15.80
2007,07,18,23,03,15.70
2007,07,18,23,04,15.70
2007,07,18,23,05,15.70
2007,07,18,23,06,15.70
2007,07,18,23,07,15.70
2007,07,18,23,08,15.70
2007,07,18,23,09,15.70
2007,07,18,23,10,15.70
2007,07,18,23,11,15.70
2007,07,18,23,12,15.70
2007,07,18,23,13,15.70
2007,07,18,23,14,15.70
2007,07,18,23,15,15.70
2007,07,18,23,16,15.70
2007,07,18,23,17,15.70
2007,07,18,23,18,15.60
2007,07,18,23,19,15.60
2007,07,18,23,20,15.60
2007,07,18,23,21,15.50
2007,07,18,23,22,15.50
2007,07,18,23,23,15.50
2007,07,18,23,24,15.50
2007,07,18,23,25,15.40
2007,07,18,23,26,15.40
2007,07,18,23,27,15.40
2007,07,18,23,28,15.40
2007,07,18,23,29,15.40
2007,07,18,23,30,15.40
2007,07,18,23,31,15.40
2007,07,18,23,32,15.40
2007,07,18,23,33,15.40
2007,07,18,23,34,15.40
2007,07,18,23,35,15.30
2007,07,18,23,36,15.30
2007,07,18,23,37,15.30
2007,07,18,23,38,15.30
2007,07,18,23,39,15.30
2007,07,18,23,40,15.30
2007,07,18,23,41,15.30
2007,07,18,23,42,15.30
2007,07,18,23,43,15.40
2007,07,18,23,44,15.30
2007,07,18,23,45,15.40
2007,07,18,23,46,15.40
2007,07,18,23,47,15.40
2007,07,18,23,48,15.40
2007,07,18,23,49,15.40
2007,07,18,23,50,15.40
2007,07,18,23,51,15.40
2007,07,18,23,52,15.40
2007,07,18,23,53,15.40
2007,07,18,23,54,15.30
2007,07,18,23,55,15.30
2007,07,18,23,56,15.20
2007,07,18,23,57,15.10
2007,07,18,23,58,15.10
2007,07,18,23,59,15.00
